Regional Weather Roundup
Issued by NWS

Current Version | Previous Version | Text Only | Print | Product List | Glossary On
Versions: 1 2 3 4 5 6 7 8 9 10 11 12 13 14 15 16 17 18 19 20 21 22 23 24 25 26 27 28 29 30 31 32 33 34 35 36 37 38 39 40 41 42 43 44 45 46 47 48 49 50
000
ASUS44 KFWD 181201
RWRTX
NORTH TEXAS HOURLY WEATHER ROUNDUP
NATIONAL WEATHER SERVICE FORT WORTH TX
700 AM CDT WED OCT 18 2017

NOTE: "FAIR" INDICATES FEW OR NO CLOUDS BELOW 12,000 FEET WITH NO
SIGNIFICANT WEATHER AND/OR OBSTRUCTIONS TO VISIBILITY.

TXZ118-119-181300-
DALLAS/FORT WORTH METROPLEX

CITY           SKY/WX    TMP DP  RH WIND       PRES   REMARKS
DFW AIRPORT    CLEAR     50  44  80 SE3       30.13R
6HR MIN TEMP:  50; 6HR MAX TEMP:  60;

DALLAS LOVE    CLEAR     53  44  71 SE7       30.15R
6HR MIN TEMP:  52; 6HR MAX TEMP:  60;

FTW MEACHAM    CLEAR     55  45  68 SE7       30.13S
6HR MIN TEMP:  53; 6HR MAX TEMP:  58;

DAL-EXECUTIVE  CLEAR     51  43  74 SE3       30.15R
6HR MIN TEMP:  50; 6HR MAX TEMP:  57;

FTW-ALLIANCE   CLEAR     51  43  74 SE3       30.13R
6HR MIN TEMP:  50; 6HR MAX TEMP:  56;

FTW-NAS-JRB    CLEAR     54  44  69 S6        30.14R
6HR MIN TEMP:  54; 6HR MAX TEMP:  59;

FTW-SPINKS     CLEAR     54  43  66 S6        30.15S
ARLINGTON      CLEAR     49  42  77 CALM      30.14S
6HR MIN TEMP:  43; 6HR MAX TEMP:  49;

GRAND PRAIRIE  CLEAR     54  41  62 CALM      30.16R
ADDISON        CLEAR     55  45  67 SE6       30.15R
MESQUITE       CLEAR     46  43  87 CALM      30.16S
LANCASTER      CLEAR     44  41  89 CALM      30.17R
6HR MIN TEMP:  43; 6HR MAX TEMP:  51;

$$

TXZ091>094-102>105-117-120-121-131>134-181300-
NORTH CENTRAL TEXAS

CITY           SKY/WX    TMP DP  RH WIND       PRES   REMARKS
SHRMAN/DENISON CLEAR     52  44  73 S9        30.15R
6HR MIN TEMP:  52; 6HR MAX TEMP:  58;

GAINESVILLE    CLEAR     51  43  75 SE8       30.15S
6HR MIN TEMP:  47; 6HR MAX TEMP:  53;

BOWIE          CLEAR     46  43  86 SE3       30.11S
6HR MIN TEMP:  46; 6HR MAX TEMP:  51;

BRIDGEPORT     CLEAR     44  44  99 CALM      30.14R
6HR MIN TEMP:  43; 6HR MAX TEMP:  51;

DENTON         CLEAR     48  44  86 CALM      30.14R
6HR MIN TEMP:  46; 6HR MAX TEMP:  53;

MCKINNEY       CLEAR     49  46  90 CALM      30.15S
6HR MIN TEMP:  44; 6HR MAX TEMP:  50;

BONHAM         CLEAR     49  43  81 SE5       30.16S
6HR MIN TEMP:  46; 6HR MAX TEMP:  53;

ROCKWALL       CLEAR     52  45  77 S5        30.16S
6HR MIN TEMP:  52; 6HR MAX TEMP:  58;

TERRELL        CLEAR     47  42  83 CALM      30.16S
6HR MIN TEMP:  46; 6HR MAX TEMP:  51;

WAXAHACHIE     CLEAR     48  42  79 CALM      30.17R
6HR MIN TEMP:  48; 6HR MAX TEMP:  55;

CLEBURNE       CLEAR     50  45  81 SE7       30.16S
$$

TXZ083>090-098>101-113>116-127>130-139>142-154-155-181300-
WESTERN NORTH TEXAS

CITY           SKY/WX    TMP DP  RH WIND       PRES   REMARKS
WICHITA FALLS  CLEAR     48  42  80 SE5       30.08S
6HR MIN TEMP:  46; 6HR MAX TEMP:  54;

WF-KICKAPOO    CLEAR     49  44  82 SE3       30.11S
6HR MIN TEMP:  49; 6HR MAX TEMP:  56;

VERNON         CLEAR     51  41  69 S3        30.08R
6HR MIN TEMP:  41; 6HR MAX TEMP:  81;

ABILENE        CLEAR     55  42  61 S8        30.09R
6HR MIN TEMP:  54; 6HR MAX TEMP:  61;

ABILENE-DYESS  CLEAR     61  43  50 S9G17     30.08R
6HR MIN TEMP:  54; 6HR MAX TEMP:  62;

BRECKENRIDGE   CLEAR     55  43  64 S7        30.09S
6HR MIN TEMP:  55; 6HR MAX TEMP:  61;

CISCO          CLEAR     54  43  66 S8        30.11R
EASTLAND       CLEAR     42  41  95 SE3       30.11S
6HR MIN TEMP:  40; 6HR MAX TEMP:  51;

RANGER         CLEAR     52  44  75 S9        30.11S
6HR MIN TEMP:  42; 6HR MAX TEMP:  91;

MINERAL WELLS  CLEAR     48  42  80 SE10      30.11R
6HR MIN TEMP:  48; 6HR MAX TEMP:  52;

STEPHENVILLE   CLEAR     46  42  84 S5        30.15S
6HR MIN TEMP:  46; 6HR MAX TEMP:  51;

COMANCHE       CLEAR     52  44  74 CALM      30.14S
6HR MIN TEMP:  50; 6HR MAX TEMP:  55;

BROWNWOOD      CLEAR     39  37  93 CALM      30.14S
COLEMAN        CLEAR     48  40  75 S5        30.13R
6HR MIN TEMP:  48; 6HR MAX TEMP:  55;

$$

TXZ143>147-156>162-174-175-181300-
CENTRAL TEXAS

CITY           SKY/WX    TMP DP  RH WIND       PRES   REMARKS
WACO           CLEAR     42  40  92 CALM      30.16R
6HR MIN TEMP:  42; 6HR MAX TEMP:  54;

WACO-TSTC      CLEAR     43  43 100 CALM      30.17
WACO-MCGREGOR  CLEAR     46  40  79 S3        30.16R
6HR MIN TEMP:  45; 6HR MAX TEMP:  54;

HILLSBORO      CLEAR     51  42  72 SE3       30.16R
6HR MIN TEMP:  51; 6HR MAX TEMP:  59;

CORSICANA        N/A     49  46  90 SE5       30.17R
6HR MIN TEMP:  48; 6HR MAX TEMP:  56;

MEXIA          CLEAR     48  43  82 CALM      30.16S
6HR MIN TEMP:  48; 6HR MAX TEMP:  54;

HEARNE         CLEAR     41  41 100 CALM      30.17S
6HR MIN TEMP:  40; 6HR MAX TEMP:  47;

CAMERON        CLEAR     46  44  93 CALM      30.16S
6HR MIN TEMP:  46; 6HR MAX TEMP:  55;

TEMPLE         CLEAR     46  42  86 CALM      30.16R
6HR MIN TEMP:  46; 6HR MAX TEMP:  56;

KILLEEN        NOT AVBL
KILLEEN-SKYLRK CLEAR     45  43  93 CALM      30.16R
6HR MIN TEMP:  45; 6HR MAX TEMP:  56;

FORT HOOD      CLEAR     50  44  80 CALM      30.12R
6HR MIN TEMP:  49; 6HR MAX TEMP:  56;

GATESVILLE     CLEAR     46  43  87 CALM      30.17R
HAMILTON       CLEAR     48  43  82 S6        30.15S
6HR MIN TEMP:  48; 6HR MAX TEMP:  54;

LAMPASAS       CLEAR     50  46  86 CALM      30.13S
6HR MIN TEMP:  48; 6HR MAX TEMP:  56;

$$

TXZ095>097-106>112-122>126-135>138-148>153-164>167-181300-
EAST TEXAS

CITY           SKY/WX    TMP DP  RH WIND       PRES   REMARKS
PARIS          CLEAR     45  41  86 E7        30.18S
6HR MIN TEMP:  44; 6HR MAX TEMP:  52;

SULPHUR SPRNGS CLEAR     47  43  84 SE3       30.19S
6HR MIN TEMP:  43; 6HR MAX TEMP:  55;

GILMER         CLEAR     42  41  96 CALM      30.18S
6HR MIN TEMP:  42; 6HR MAX TEMP:  47;

MINEOLA        PTCLDY    39  39 100 CALM      30.17F
TYLER          CLEAR     47  41  80 CALM      30.17S
6HR MIN TEMP:  46; 6HR MAX TEMP:  54;

LONGVIEW       CLEAR     43  42  97 CALM      30.18R
6HR MIN TEMP:  43; 6HR MAX TEMP:  50;

MARSHALL       CLEAR     40  38  93 CALM      30.20S
6HR MIN TEMP:  40; 6HR MAX TEMP:  45;

ATHENS         CLEAR     41  41 100 CALM      30.17R
PALESTINE        N/A     45  44  95 CALM      30.18S
JACKSONVILLE   CLEAR     52  46  79 CALM      30.19S
HENDERSON      CLEAR     39  39  97 CALM      30.19R
6HR MIN TEMP:  39; 6HR MAX TEMP:  45;

CENTER         SUNNY     46  45  95 CALM      30.19S
6HR MIN TEMP:  46; 6HR MAX TEMP:  50;

NACOGDOCHES    CLEAR     40  39  97 CALM      30.18R
6HR MIN TEMP:  40; 6HR MAX TEMP:  45;

LUFKIN         CLEAR     44  44 100 CALM      30.17R FOG
6HR MIN TEMP:  44; 6HR MAX TEMP:  49;

$$

SUPPLEMENTAL OBSERVATIONS (NWS FORT WORTH AREA)

CITY           SKY/WX    TMP DP  RH WIND       PRES   REMARKS
$$

SUPPLEMENTAL OBSERVATIONS (NWS NORMAN AREA)

CITY           SKY/WX    TMP DP  RH WIND       PRES   REMARKS
GOODLETT         N/A     47  38  71 S8        30.05S
ODELL            N/A     51  44  77 SE8       30.07S
CROWELL          N/A     46  37  71 SW6       30.08R
KNOX CITY        N/A     46  37  70 S3        30.09R
SEYMOUR          N/A     50  42  75 S6        30.09R
$$

SUPPLEMENTAL OBSERVATIONS (NWS SAN ANGELO AREA)

CITY           SKY/WX    TMP DP  RH WIND       PRES   REMARKS
WEINERT          N/A     48  41  76 S8



USA.gov is the U.S. government's official web portal to all federal, state and local government web resources and services.